User: anonymous   Login
Location: Larrial
(48.2758°N, 4.5331°W)
Time: 21:16:24
(UTC+00:00)
Language:

BREEZE-M DEB (TANK) - Orbit

View from above orbital plane
View from above orbital plane
View from above satellite
View from above satellite

Ground track
Ground track

The orbit data is extracted from the following two-line orbital elements,

1 27821U 03024B   20185.13260208  .00003681  00000-0  33760-3 0  9997
2 27821  49.6109 346.5724 4910405 165.2033 217.1289  5.81553451344834
Epoch (UTC): 03 July 2020 03:10:56
Eccentricity: 0.4910405
inclination: 49.6109°
perigee height: 270 km
apogee height: 13097 km
right ascension of ascending node: 346.5724°
argument of perigee: 165.2033°
revolutions per day: 5.81553451
mean anomaly at epoch: 217.1289°
orbit number at epoch: 34483

The dashed part of the orbit path shows where the satellite is in the earth's shadow,  

DLR